Location: Blangy-Tronville
(49.8790°N, 2.4226°E)
Time: 20:51:33
(UTC+00:00)

Cosmos 304 Rocket - Pass Details

Date: 18 November 2025
Orbit: 668 x 677 km, 74.0° (Epoch: 05 December)

Event Time Altitude Azimuth Distance (km) Brightness Sun altitude
Rises 18:41:11 0° 210° (SSW) 3,005 7.5 -25.2°
Reaches altitude 10° 18:43:29 10° 213° (SSW) 2,097 6.6 -25.6°
Maximum altitude 18:48:10 68° 296° (WNW) 730 3.9 -26.3°
Enters shadow 18:48:42 62° 336° (NNW) 762 4.0 -26.4°
